QTR216 DTTA-FIMP

Flight info

Callsign QTR216
Flight time N/A
Altitude 35000
Route GIBLI2C GIBLI A411 VAXAL UA411 MON UP868 NIGAT DCT ELIMO M732 DITAR R2 ATMUL N314 KUVTI/N0498F370 N314 TIKAT G300 MAV UM665 ITLOX/N0494F380 UM665 ANKOR/N0491F390 UA665 UVDUK/N0489F380 UL441 IXEBU/N0491F390 UN304 PONIR UA400 RASMA RASMA2F
Aircraft A388/J-SADE2E3FGHIJ3J4J5M1RWXY/LB1D1

Departure

Time 2026-05-06 10:28
Airport Tunis Carthage International Airport (DTTA)

Arrival

Time N/A
Airport Sir Seewoosagur Ramgoolam International Airport (FIMP)
Time Latitude Longitude Altitude Speed Heading
2026-05-06 10:03 36.84519 10.21953 35 ft 0 kts 356°
2026-05-06 10:21 36.84496 10.21955 8 ft 4 kts 356°
2026-05-06 10:21 36.84469 10.21957 34 ft 4 kts 356°
2026-05-06 10:22 36.84448 10.21956 32 ft 4 kts 40°
2026-05-06 10:22 36.84438 10.21930 31 ft 4 kts 85°
2026-05-06 10:22 36.84437 10.21903 31 ft 1 kts 92°
2026-05-06 10:22 36.84437 10.21898 31 ft 0 kts 92°
2026-05-06 10:24 36.84437 10.21907 35 ft 8 kts 90°
2026-05-06 10:24 36.84447 10.21989 35 ft 8 kts 66°
2026-05-06 10:25 36.84476 10.22049 35 ft 13 kts 56°
2026-05-06 10:25 36.84504 10.22158 35 ft 13 kts 101°
2026-05-06 10:25 36.84506 10.22256 35 ft 6 kts 52°
2026-05-06 10:25 36.84579 10.22280 35 ft 21 kts
2026-05-06 10:26 36.84725 10.22314 35 ft 19 kts 13°
2026-05-06 10:26 36.84861 10.22350 35 ft 10 kts 13°
2026-05-06 10:26 36.84994 10.22364 36 ft 28 kts 327°
2026-05-06 10:26 36.85082 10.22129 35 ft 29 kts 290°
2026-05-06 10:27 36.85135 10.21961 35 ft 22 kts 293°
2026-05-06 10:27 36.85218 10.21745 35 ft 25 kts 312°
2026-05-06 10:27 36.85350 10.21749 35 ft 24 kts 29°
2026-05-06 10:27 36.85398 10.21855 37 ft 10 kts 96°
2026-05-06 10:28 36.85322 10.22100 37 ft 67 kts 112°
2026-05-06 10:28 36.85011 10.23029 35 ft 164 kts 112°
2026-05-06 10:28 36.84501 10.24613 415 ft 215 kts 112°
2026-05-06 10:28 36.83953 10.26273 2006 ft 203 kts 114°
2026-05-06 10:29 36.83387 10.27990 2465 ft 225 kts 114°
2026-05-06 10:29 36.82691 10.29783 2729 ft 233 kts 128°
2026-05-06 10:29 36.81407 10.31038 3100 ft 242 kts 155°
2026-05-06 10:29 36.79757 10.31589 3776 ft 248 kts 174°
2026-05-06 10:30 36.78037 10.31422 4587 ft 247 kts 187°
2026-05-06 10:30 36.76357 10.31071 5452 ft 248 kts 189°
2026-05-06 10:30 36.74609 10.30685 5994 ft 260 kts 190°
2026-05-06 10:30 36.72816 10.30279 6772 ft 261 kts 190°
2026-05-06 10:31 36.71631 10.30030 7280 ft 261 kts 185°
2026-05-06 10:31 36.69838 10.30319 7964 ft 264 kts 162°
2026-05-06 10:31 36.68109 10.31156 8621 ft 270 kts 161°
2026-05-06 10:31 36.66344 10.31998 9424 ft 271 kts 162°
2026-05-06 10:32 36.64007 10.33108 10443 ft 275 kts 162°
2026-05-06 10:32 36.62772 10.33693 10665 ft 288 kts 162°
2026-05-06 10:32 36.60811 10.34619 10838 ft 313 kts 162°
2026-05-06 10:32 36.58728 10.35604 11019 ft 336 kts 162°
2026-05-06 10:33 36.56479 10.36666 11364 ft 354 kts 162°
2026-05-06 10:33 36.54143 10.37772 11981 ft 364 kts 162°
2026-05-06 10:33 36.51754 10.38903 12714 ft 369 kts 162°
2026-05-06 10:33 36.49337 10.40045 13507 ft 374 kts 162°
2026-05-06 10:34 36.46878 10.41206 14175 ft 381 kts 162°
2026-05-06 10:34 36.44381 10.42384 14853 ft 386 kts 162°
2026-05-06 10:34 36.41855 10.43573 15577 ft 391 kts 163°
2026-05-06 10:34 36.39289 10.44779 16279 ft 396 kts 163°
2026-05-06 10:35 36.36695 10.46009 16936 ft 401 kts 162°
2026-05-06 10:35 36.34078 10.47282 17595 ft 407 kts 162°
2026-05-06 10:35 36.31418 10.48579 18254 ft 413 kts 162°
2026-05-06 10:35 36.28851 10.49825 18786 ft 418 kts 163°
2026-05-06 10:36 36.28672 10.49912 18839 ft 418 kts 163°
2026-05-06 10:36 36.25946 10.51217 19398 ft 422 kts 163°
2026-05-06 10:36 36.23186 10.52515 19965 ft 427 kts 163°
2026-05-06 10:37 36.20386 10.53825 20524 ft 432 kts 163°
2026-05-06 10:37 36.17556 10.55147 21074 ft 437 kts 163°
2026-05-06 10:37 36.14731 10.56469 21621 ft 442 kts 163°
2026-05-06 10:37 36.11837 10.57825 22140 ft 447 kts 163°
2026-05-06 10:38 36.08907 10.59199 22614 ft 453 kts 163°
2026-05-06 10:38 36.05946 10.60586 23138 ft 458 kts 163°
2026-05-06 10:38 36.02950 10.61990 23627 ft 462 kts 163°
2026-05-06 10:38 35.99924 10.63407 24053 ft 467 kts 164°
2026-05-06 10:39 35.96876 10.64833 24498 ft 470 kts 164°
2026-05-06 10:39 35.93805 10.66268 24961 ft 473 kts 164°
2026-05-06 10:39 35.90711 10.67714 25424 ft 476 kts 164°
2026-05-06 10:39 35.87603 10.69164 25854 ft 480 kts 164°
2026-05-06 10:40 35.84474 10.70623 26270 ft 483 kts 164°
2026-05-06 10:40 35.81324 10.72109 26670 ft 484 kts 161°
2026-05-06 10:40 35.78371 10.74228 26875 ft 502 kts 143°
2026-05-06 10:40 35.76033 10.77476 27205 ft 514 kts 124°
2026-05-06 10:41 35.74529 10.81474 27819 ft 517 kts 108°
2026-05-06 10:41 35.73876 10.85815 28225 ft 517 kts 98°
2026-05-06 10:41 35.73412 10.90237 28420 ft 524 kts 98°
2026-05-06 10:41 35.72912 10.94699 28677 ft 529 kts 99°
2026-05-06 10:42 35.72372 10.99188 29033 ft 531 kts 99°
2026-05-06 10:42 35.71803 11.03680 29404 ft 532 kts 100°
2026-05-06 10:42 35.71217 11.08183 29771 ft 533 kts 100°
2026-05-06 10:42 35.70625 11.12686 30179 ft 533 kts 100°
2026-05-06 10:43 35.70034 11.17178 30587 ft 531 kts 100°
2026-05-06 10:43 35.69448 11.21658 31002 ft 529 kts 101°
2026-05-06 10:43 35.68863 11.26120 31391 ft 528 kts 101°
2026-05-06 10:44 35.67685 11.35046 31976 ft 530 kts 101°
2026-05-06 10:44 35.67099 11.39471 32196 ft 532 kts 101°
2026-05-06 10:44 35.66504 11.43961 32549 ft 531 kts 101°
2026-05-06 10:44 35.65903 11.48428 32936 ft 529 kts 102°
2026-05-06 10:45 35.65105 11.52854 32908 ft 531 kts 109°
2026-05-06 10:45 35.62933 11.61489 32931 ft 527 kts 110°
2026-05-06 10:46 35.61982 11.65175 32933 ft 525 kts 110°
2026-05-06 10:46 35.60673 11.70271 32923 ft 525 kts 109°
2026-05-06 10:47 35.58478 11.78924 32956 ft 535 kts 109°
2026-05-06 10:47 35.56280 11.87680 32930 ft 536 kts 109°
2026-05-06 10:48 35.54084 11.96425 32940 ft 535 kts 109°
2026-05-06 10:48 35.51901 12.05077 32935 ft 534 kts 109°
2026-05-06 10:49 35.49694 12.13781 32947 ft 535 kts 109°
2026-05-06 10:49 35.47469 12.22524 32937 ft 538 kts 109°
2026-05-06 10:50 35.45232 12.31285 32941 ft 539 kts 109°
2026-05-06 10:50 35.42978 12.40083 32957 ft 540 kts 109°
2026-05-06 10:51 35.40715 12.48887 32935 ft 542 kts 108°
2026-05-06 10:51 35.38442 12.57706 32933 ft 543 kts 109°
2026-05-06 10:52 35.36159 12.66529 32947 ft 543 kts 109°
2026-05-06 10:52 35.33870 12.75345 32952 ft 543 kts 109°
2026-05-06 10:53 35.31593 12.84086 32940 ft 542 kts 108°
2026-05-06 10:53 35.29300 12.92863 32949 ft 541 kts 108°
2026-05-06 10:54 35.27001 13.01628 32967 ft 539 kts 108°
2026-05-06 10:54 35.24703 13.10361 32959 ft 539 kts 108°
2026-05-06 10:55 35.22406 13.19064 32970 ft 537 kts 108°
2026-05-06 10:55 35.20110 13.27732 32955 ft 534 kts 108°
2026-05-06 10:56 35.19241 13.31007 32954 ft 533 kts 108°
2026-05-06 10:56 35.17940 13.35899 32961 ft 532 kts 108°
2026-05-06 10:57 35.15650 13.44491 32977 ft 531 kts 109°
2026-05-06 10:57 35.13373 13.53009 32989 ft 530 kts 109°
2026-05-06 10:58 35.11080 13.61559 32967 ft 529 kts 109°
2026-05-06 10:58 35.08783 13.70094 32973 ft 528 kts 109°
2026-05-06 10:59 35.06486 13.78604 32977 ft 527 kts 109°
2026-05-06 10:59 35.04186 13.87098 32999 ft 527 kts 109°
2026-05-06 11:00 35.01880 13.95585 32979 ft 527 kts 109°
2026-05-06 11:00 34.99573 14.04056 32981 ft 526 kts 109°
2026-05-06 11:01 34.97263 14.12504 32994 ft 525 kts 109°
2026-05-06 11:01 34.94953 14.20930 32994 ft 525 kts 109°
2026-05-06 11:02 34.92632 14.29369 32998 ft 525 kts 109°
2026-05-06 11:02 34.90319 14.37755 33007 ft 526 kts 109°
2026-05-06 11:03 34.87982 14.46200 32983 ft 527 kts 109°
2026-05-06 11:03 34.85632 14.54666 33020 ft 529 kts 109°
2026-05-06 11:04 34.83266 14.63168 33009 ft 531 kts 109°
2026-05-06 11:04 34.80886 14.71690 33020 ft 533 kts 109°
2026-05-06 11:05 34.78493 14.80230 33016 ft 533 kts 109°
2026-05-06 11:05 34.76096 14.88761 33011 ft 533 kts 109°
2026-05-06 11:06 34.75308 14.91561 33016 ft 533 kts 109°
2026-05-06 11:06 34.73729 14.97160 33000 ft 532 kts 109°
2026-05-06 11:07 34.71320 15.05681 33017 ft 533 kts 109°
2026-05-06 11:07 34.68902 15.14209 33025 ft 534 kts 109°
2026-05-06 11:08 34.66471 15.22757 33026 ft 535 kts 109°
2026-05-06 11:08 34.64047 15.31253 33038 ft 536 kts 109°
2026-05-06 11:09 34.61603 15.39793 33031 ft 535 kts 109°
2026-05-06 11:09 34.59162 15.48300 33030 ft 533 kts 109°
2026-05-06 11:10 34.56722 15.56778 33038 ft 531 kts 109°
2026-05-06 11:10 34.54278 15.65242 33054 ft 530 kts 109°
2026-05-06 11:11 34.51835 15.73677 33041 ft 530 kts 109°
2026-05-06 11:11 34.49387 15.82108 33049 ft 530 kts 109°
2026-05-06 11:12 34.46931 15.90538 33049 ft 530 kts 109°
2026-05-06 11:12 34.44468 15.98969 33053 ft 531 kts 109°
2026-05-06 11:13 34.41994 16.07412 33043 ft 532 kts 109°
2026-05-06 11:13 34.39527 16.15811 33058 ft 534 kts 109°
2026-05-06 11:14 34.37028 16.24295 33065 ft 536 kts 109°
2026-05-06 11:14 34.34370 16.32732 33055 ft 537 kts 116°
2026-05-06 11:15 34.30397 16.40360 33073 ft 535 kts 130°
2026-05-06 11:15 34.25316 16.46878 33072 ft 531 kts 137°
2026-05-06 11:16 34.23865 16.48604 33069 ft 531 kts 137°
2026-05-06 11:16 34.20158 16.53033 33063 ft 531 kts 137°
2026-05-06 11:17 34.14953 16.59349 33069 ft 531 kts 137°
2026-05-06 11:17 34.09773 16.65686 33053 ft 530 kts 137°
2026-05-06 11:18 34.04587 16.72017 33068 ft 531 kts 137°
2026-05-06 11:18 33.99381 16.78351 33075 ft 532 kts 137°
2026-05-06 11:19 33.95046 16.83612 33071 ft 533 kts 137°
2026-05-06 11:19 33.89821 16.89945 33072 ft 533 kts 137°
2026-05-06 11:20 33.83702 16.97351 33076 ft 533 kts 137°
2026-05-06 11:20 33.79353 17.02606 33056 ft 533 kts 137°
2026-05-06 11:21 33.74111 17.08928 33084 ft 534 kts 137°
2026-05-06 11:21 33.68858 17.15253 33076 ft 534 kts 137°
2026-05-06 11:22 33.63639 17.21526 33076 ft 534 kts 137°
2026-05-06 11:22 33.58384 17.27830 33079 ft 534 kts 137°
2026-05-06 11:23 33.53128 17.34124 33082 ft 534 kts 137°
2026-05-06 11:23 33.47872 17.40406 33063 ft 534 kts 137°
2026-05-06 11:24 33.42612 17.46681 33085 ft 534 kts 137°
2026-05-06 11:24 33.37339 17.52961 33087 ft 534 kts 137°
2026-05-06 11:25 33.32065 17.59232 33081 ft 535 kts 137°
2026-05-06 11:25 33.26786 17.65497 33088 ft 535 kts 137°
2026-05-06 11:26 33.24728 17.67938 33088 ft 535 kts 137°
2026-05-06 11:26 33.21624 17.71614 33084 ft 535 kts 137°
2026-05-06 11:27 33.16474 17.77964 33078 ft 536 kts 135°
2026-05-06 11:27 33.11414 17.84505 33088 ft 536 kts 134°
2026-05-06 11:28 33.06345 17.91039 33090 ft 537 kts 135°
2026-05-06 11:28 33.01238 17.97547 33088 ft 538 kts 135°
2026-05-06 11:29 32.96113 18.04038 33094 ft 538 kts 135°
2026-05-06 11:29 32.90968 18.10541 33092 ft 539 kts 135°
2026-05-06 11:30 32.85863 18.16986 33068 ft 539 kts 135°
2026-05-06 11:30 32.80706 18.23488 33092 ft 542 kts 135°
2026-05-06 11:31 32.75511 18.30026 33101 ft 545 kts 135°
2026-05-06 11:31 32.70288 18.36587 33095 ft 548 kts 135°
2026-05-06 11:32 32.65042 18.43165 33104 ft 548 kts 135°
2026-05-06 11:32 32.59850 18.49666 33082 ft 535 kts 135°
2026-05-06 11:33 32.54737 18.56054 33071 ft 534 kts 135°
2026-05-06 11:33 32.49571 18.62492 33097 ft 545 kts 135°
2026-05-06 11:34 32.44305 18.69046 33099 ft 549 kts 135°
2026-05-06 11:34 32.39043 18.75588 33091 ft 548 kts 135°
2026-05-06 11:35 32.33795 18.82099 33099 ft 541 kts 135°
2026-05-06 11:35 32.28639 18.88486 33089 ft 536 kts 135°
2026-05-06 11:36 32.26904 18.90631 33094 ft 537 kts 135°
2026-05-06 11:36 32.23692 18.94599 33101 ft 538 kts 135°
2026-05-06 11:37 32.18506 19.00996 33087 ft 541 kts 135°
2026-05-06 11:37 32.13265 19.07451 33104 ft 546 kts 135°
2026-05-06 11:38 32.07995 19.13932 33118 ft 546 kts 135°
2026-05-06 11:38 32.02796 19.20318 33087 ft 534 kts 135°
2026-05-06 11:39 31.97648 19.26626 33099 ft 534 kts 135°
2026-05-06 11:39 31.92490 19.32934 33101 ft 535 kts 135°
2026-05-06 11:40 31.87349 19.39220 33103 ft 537 kts 135°
2026-05-06 11:40 31.82243 19.45662 33099 ft 539 kts 134°
2026-05-06 11:41 31.77217 19.52107 33093 ft 529 kts 134°
2026-05-06 11:41 31.72247 19.58441 33091 ft 527 kts 134°
2026-05-06 11:42 31.67248 19.64771 33105 ft 528 kts 134°
2026-05-06 11:42 31.62234 19.71103 33101 ft 530 kts 134°
2026-05-06 11:43 31.57213 19.77438 33070 ft 531 kts 134°
2026-05-06 11:43 31.52158 19.83807 33101 ft 534 kts 134°
2026-05-06 11:44 31.44585 19.93332 33091 ft 535 kts 135°
2026-05-06 11:44 31.39508 19.99701 33090 ft 534 kts 135°
2026-05-06 11:45 31.34447 20.06041 33091 ft 532 kts 135°
2026-05-06 11:45 31.30462 20.11029 33092 ft 531 kts 135°
2026-05-06 11:46 31.29395 20.12364 33093 ft 531 kts 135°
2026-05-06 11:46 31.24353 20.18664 33076 ft 529 kts 135°
2026-05-06 11:47 31.19356 20.24898 33092 ft 528 kts 135°
2026-05-06 11:47 31.14328 20.31159 33094 ft 528 kts 135°
2026-05-06 11:48 31.09293 20.37418 33095 ft 529 kts 135°
2026-05-06 11:48 31.04248 20.43679 33093 ft 530 kts 135°
2026-05-06 11:49 30.99192 20.49943 33102 ft 530 kts 135°
2026-05-06 11:49 30.94138 20.56197 33095 ft 529 kts 135°
2026-05-06 11:50 30.89084 20.62438 33078 ft 529 kts 135°
2026-05-06 11:50 30.84034 20.68664 33094 ft 530 kts 135°
2026-05-06 11:51 30.78963 20.74906 33095 ft 532 kts 135°
2026-05-06 11:51 30.73870 20.81165 33095 ft 533 kts 135°
2026-05-06 11:52 30.68807 20.87379 33088 ft 532 kts 135°
2026-05-06 11:52 30.63720 20.93611 33090 ft 530 kts 135°
2026-05-06 11:53 30.58650 20.99812 33071 ft 529 kts 135°
2026-05-06 11:53 30.53568 21.06019 33107 ft 532 kts 135°
2026-05-06 11:54 30.48422 21.12211 33103 ft 534 kts 136°
2026-05-06 11:54 30.43157 21.18314 33109 ft 536 kts 137°
2026-05-06 11:55 30.37868 21.24407 33079 ft 535 kts 137°
2026-05-06 11:55 30.33993 21.28888 33100 ft 534 kts 137°
2026-05-06 11:56 30.32640 21.30455 33079 ft 534 kts 137°
2026-05-06 11:56 30.27403 21.36524 33100 ft 532 kts 137°
2026-05-06 11:57 30.22203 21.42546 33097 ft 533 kts 137°
2026-05-06 11:57 30.16950 21.48615 33104 ft 535 kts 137°
2026-05-06 11:58 30.11663 21.54712 33107 ft 538 kts 137°
2026-05-06 11:58 30.06362 21.60817 33104 ft 539 kts 137°
2026-05-06 11:59 30.01041 21.66935 33098 ft 540 kts 137°
2026-05-06 11:59 29.95716 21.73048 33095 ft 540 kts 137°
2026-05-06 12:00 29.90395 21.79146 33091 ft 540 kts 137°
2026-05-06 12:00 29.85056 21.85255 33104 ft 541 kts 137°
2026-05-06 12:01 29.79702 21.91371 33101 ft 542 kts 137°
2026-05-06 12:01 29.74341 21.97486 33094 ft 543 kts 137°
2026-05-06 12:02 29.68977 22.03594 33097 ft 542 kts 137°
2026-05-06 12:02 29.63612 22.09694 33093 ft 542 kts 137°
2026-05-06 12:03 29.58254 22.15776 33075 ft 541 kts 138°
2026-05-06 12:03 29.52932 22.21808 33092 ft 541 kts 138°
2026-05-06 12:04 29.47561 22.27885 33096 ft 542 kts 138°
2026-05-06 12:04 29.42187 22.33956 33096 ft 542 kts 138°
2026-05-06 12:05 29.36804 22.40029 33092 ft 543 kts 138°
2026-05-06 12:05 29.33112 22.44187 33094 ft 543 kts 138°
2026-05-06 12:06 29.32345 22.45050 33099 ft 543 kts 138°
2026-05-06 12:06 29.26951 22.51119 33101 ft 542 kts 138°
2026-05-06 12:07 29.21597 22.57132 33088 ft 542 kts 138°
2026-05-06 12:07 29.16208 22.63174 33095 ft 542 kts 139°
2026-05-06 12:08 29.10815 22.69211 33092 ft 543 kts 139°
2026-05-06 12:08 29.05417 22.75245 33092 ft 543 kts 139°
2026-05-06 12:09 29.00011 22.81279 33098 ft 543 kts 139°
2026-05-06 12:09 28.94605 22.87304 33092 ft 543 kts 139°
2026-05-06 12:10 28.89202 22.93316 33097 ft 542 kts 139°
2026-05-06 12:10 28.83792 22.99325 33097 ft 542 kts 139°
2026-05-06 12:11 28.78391 23.05317 33091 ft 542 kts 139°
2026-05-06 12:11 28.73016 23.11270 33080 ft 542 kts 139°
2026-05-06 12:12 28.67608 23.17250 33100 ft 542 kts 139°
2026-05-06 12:12 28.62197 23.23225 33098 ft 541 kts 139°
2026-05-06 12:13 28.56794 23.29183 33079 ft 541 kts 139°
2026-05-06 12:13 28.51388 23.35134 33076 ft 540 kts 139°
2026-05-06 12:14 28.46018 23.41037 33089 ft 540 kts 139°
2026-05-06 12:14 28.40580 23.47005 33139 ft 542 kts 140°
2026-05-06 12:15 28.37899 23.49944 33432 ft 542 kts 140°
2026-05-06 12:15 28.35187 23.52915 33840 ft 541 kts 140°
2026-05-06 12:15 28.32486 23.55874 34212 ft 539 kts 140°
2026-05-06 12:15 28.30827 23.57689 34401 ft 538 kts 140°
2026-05-06 12:16 28.29923 23.58679 34532 ft 537 kts 140°
2026-05-06 12:16 28.27239 23.61614 34853 ft 536 kts 140°
2026-05-06 12:16 28.24554 23.64546 35004 ft 536 kts 140°
2026-05-06 12:17 28.19180 23.70408 35085 ft 534 kts 140°
2026-05-06 12:17 28.13871 23.76194 35071 ft 531 kts 140°
2026-05-06 12:18 28.08550 23.81983 35080 ft 529 kts 140°
2026-05-06 12:18 28.03248 23.87743 35082 ft 528 kts 140°
2026-05-06 12:19 27.97948 23.93491 35083 ft 528 kts 140°
2026-05-06 12:19 27.92641 23.99238 35083 ft 529 kts 140°
2026-05-06 12:20 27.87326 24.04988 35072 ft 529 kts 140°
2026-05-06 12:20 27.82002 24.10739 35078 ft 529 kts 140°
2026-05-06 12:21 27.76675 24.16485 35077 ft 530 kts 140°
2026-05-06 12:21 27.71336 24.22236 35076 ft 530 kts 140°
2026-05-06 12:22 27.65994 24.27982 35073 ft 530 kts 140°
2026-05-06 12:22 27.60654 24.33717 35073 ft 530 kts 140°
2026-05-06 12:23 27.55310 24.39449 35056 ft 530 kts 140°
2026-05-06 12:23 27.49964 24.45175 35084 ft 530 kts 140°
2026-05-06 12:24 27.44644 24.50865 35068 ft 530 kts 140°
2026-05-06 12:24 27.39290 24.56583 35061 ft 531 kts 140°
2026-05-06 12:25 27.33935 24.62294 35063 ft 531 kts 140°
2026-05-06 12:25 27.29875 24.66619 35064 ft 531 kts 140°
2026-05-06 12:26 27.28782 24.67783 35080 ft 531 kts 140°
2026-05-06 12:26 27.23420 24.73486 35062 ft 531 kts 141°
2026-05-06 12:27 27.18051 24.79189 35063 ft 531 kts 141°
2026-05-06 12:27 27.12673 24.84894 35063 ft 532 kts 141°
2026-05-06 12:28 27.07283 24.90604 35070 ft 534 kts 141°
2026-05-06 12:28 27.01878 24.96324 35068 ft 535 kts 141°
2026-05-06 12:29 26.96360 25.01892 35066 ft 531 kts 147°
2026-05-06 12:29 26.90506 25.06926 35065 ft 530 kts 148°
2026-05-06 12:30 26.84645 25.11912 35060 ft 529 kts 147°
2026-05-06 12:30 26.78840 25.16890 35064 ft 529 kts 147°
2026-05-06 12:31 26.72971 25.21947 35062 ft 529 kts 147°
2026-05-06 12:31 26.67178 25.26939 35066 ft 529 kts 147°
2026-05-06 12:32 26.61342 25.31959 35061 ft 529 kts 147°
2026-05-06 12:32 26.55504 25.36971 35037 ft 529 kts 147°
2026-05-06 12:33 26.49671 25.41971 35058 ft 528 kts 147°
2026-05-06 12:33 26.43840 25.46964 35064 ft 528 kts 147°
2026-05-06 12:34 26.38011 25.51947 35060 ft 527 kts 147°
2026-05-06 12:34 26.32188 25.56920 35055 ft 527 kts 147°
2026-05-06 12:35 26.26393 25.61861 35057 ft 527 kts 147°
2026-05-06 12:35 26.22275 25.65369 35031 ft 527 kts 147°
2026-05-06 12:36 26.20711 25.66701 35046 ft 527 kts 147°
2026-05-06 12:36 26.14892 25.71652 35056 ft 527 kts 147°
2026-05-06 12:37 26.09069 25.76599 35059 ft 526 kts 147°
2026-05-06 12:37 26.03243 25.81542 35057 ft 527 kts 147°
2026-05-06 12:38 25.97408 25.86486 35055 ft 527 kts 147°
2026-05-06 12:38 25.91612 25.91391 35054 ft 527 kts 147°
2026-05-06 12:39 25.85779 25.96322 35054 ft 526 kts 147°
2026-05-06 12:39 25.79945 26.01247 35051 ft 527 kts 147°
2026-05-06 12:40 25.74111 26.06166 35051 ft 527 kts 147°
2026-05-06 12:40 25.68271 26.11083 35049 ft 527 kts 147°
2026-05-06 12:41 25.62429 26.15996 35050 ft 527 kts 148°
2026-05-06 12:41 25.56585 26.20906 35043 ft 527 kts 148°
2026-05-06 12:42 25.50742 26.25808 35053 ft 527 kts 147°
2026-05-06 12:42 25.44899 26.30704 35057 ft 527 kts 147°
2026-05-06 12:43 25.39084 26.35572 35036 ft 527 kts 147°
2026-05-06 12:43 25.33233 26.40458 35054 ft 527 kts 148°
2026-05-06 12:44 25.27379 26.45328 35048 ft 527 kts 148°
2026-05-06 12:44 25.21516 26.50201 35048 ft 527 kts 148°
2026-05-06 12:45 25.15661 26.55064 35051 ft 527 kts 148°
2026-05-06 12:46 25.11831 26.58244 35040 ft 526 kts 148°